Seldovia, AK

10:24 AM AKDT on October 20, 2017 (GMT -0800)
Seldovia

Weather History for PASO - October, 2013

Change the Weather History Date:

Tuesday, October 8, 2013

  Actual Average (PAHO) Record (PAHO)
Temperature  
Mean Temperature 46 °F -  
Max Temperature 51 °F 47 °F 59 °F (2015)
Min Temperature 41 °F 35 °F 19 °F (1951)
Degree Days  
Heating Degree Days 19    
Moisture  
Dew Point 43 °F    
Average Humidity 85    
Maximum Humidity 93    
Minimum Humidity 66    
Precipitation  
Precipitation 1.25 in - - ()
Sea Level Pressure  
Sea Level Pressure 29.24 in    
Wind  
Wind Speed 8 mph (South)    
Max Wind Speed 20 mph    
Max Gust Speed 39 mph    
Visibility 8 miles    
Events Rain    
Averages and records for this station are not official NWS values.
T = Trace of Precipitation, MM = Missing Value Source: NWS Daily Summary

Daily Weather History Graph

Daily Weather History Graph

Search for Another Location

Airport or City:

Trip Planner

Search our weather history database for the weather conditions in past years. The results will help you decide how hot, cold, wet, or windy it might be!

Date:

Astronomy

Oct. 08, 2013 Rise Set
Actual Time 8:29 AM AKDT 7:17 PM AKDT
Civil Twilight 7:48 AM AKDT 7:58 PM AKDT
Nautical Twilight 7:01 AM AKDT 8:45 PM AKDT
Astronomical Twilight 6:12 AM AKDT 9:34 PM AKDT
Moon 1:33 PM AKDT (10/8) 9:03 PM AKDT (10/8)
Length of Visible Light 12h 10m
Length of Day
10h 48m
Waxing Crescent, 17% of the Moon is Illuminated
Oct 8
Waxing Crescent
Oct 11
First Quarter
Oct 18
Full
Oct 26
Last Quarter
Nov 3
New

Hourly Weather History & Observations

Time (AKDT) Temp. Windchill Dew Point Humidity Pressure Visibility Wind Dir Wind Speed Gust Speed Precip Events Conditions
12:53 AM 48.9 °F - 46.0 °F 90% 29.57 in 5.0 mi Variable 3.5 mph - 0.08 in Rain Rain
1:53 AM 50.0 °F - 46.0 °F 86% 29.52 in 7.0 mi South 11.5 mph 27.6 mph 0.11 in Rain Light Rain
2:53 AM 50.0 °F - 46.9 °F 89% 29.44 in 5.0 mi South 8.1 mph 21.9 mph 0.11 in Rain Rain
3:53 AM 51.1 °F - 46.9 °F 86% 29.37 in 5.0 mi South 17.3 mph 32.2 mph 0.14 in Rain Rain
4:53 AM 50.0 °F - 46.9 °F 89% 29.30 in 7.0 mi South 19.6 mph 39.1 mph 0.13 in Rain Light Rain
5:53 AM 50.0 °F - 46.0 °F 86% 29.29 in 9.0 mi South 16.1 mph 28.8 mph 0.09 in Rain Light Rain
6:53 AM 50.0 °F - 46.0 °F 86% 29.27 in 8.0 mi South 12.7 mph 31.1 mph 0.05 in Rain Light Rain
7:53 AM 50.0 °F - 46.9 °F 89% 29.24 in 6.0 mi South 11.5 mph 23.0 mph 0.10 in Rain Rain
8:53 AM 50.0 °F - 46.9 °F 89% 29.24 in 4.0 mi South 11.5 mph 18.4 mph 0.15 in Rain Rain
9:53 AM 50.0 °F - 46.9 °F 89% 29.20 in 10.0 mi South 13.8 mph 19.6 mph 0.10 in   Mostly Cloudy
10:53 AM 50.0 °F - 46.9 °F 89% 29.18 in 10.0 mi South 8.1 mph - N/A   Mostly Cloudy
11:53 AM 51.1 °F - 48.0 °F 89% 29.18 in 7.0 mi South 8.1 mph - 0.01 in Rain Light Rain
12:53 PM 48.9 °F - 46.9 °F 93% 29.18 in 1.5 mi Variable 6.9 mph - 0.13 in Rain Heavy Rain
12:59 PM 48.2 °F - 46.4 °F 93% 29.18 in 2.5 mi Variable 5.8 mph - 0.01 in Rain Rain
1:07 PM 48.2 °F - 44.6 °F 87% 29.18 in 3.0 mi Variable 4.6 mph - 0.02 in Rain Light Rain
1:17 PM 48.2 °F - 44.6 °F 87% 29.19 in 4.0 mi Variable 6.9 mph - 0.02 in Rain Light Rain
1:53 PM 48.0 °F - 44.1 °F 86% 29.18 in 9.0 mi Variable 5.8 mph - 0.02 in   Overcast
2:53 PM 48.0 °F - 43.0 °F 83% 29.20 in 10.0 mi Calm Calm - 0.01 in Rain Light Rain
3:53 PM 46.0 °F 43.9 °F 42.1 °F 86% 29.20 in 10.0 mi Variable 4.6 mph - 0.01 in   Overcast
4:53 PM 46.9 °F - 39.9 °F 77% 29.19 in 10.0 mi Variable 3.5 mph - 0.00 in   Overcast
5:53 PM 43.0 °F - 39.0 °F 86% 29.18 in 10.0 mi Calm Calm - N/A   Clear
6:53 PM 42.1 °F - 39.0 °F 89% 29.18 in 10.0 mi Calm Calm - N/A   Mostly Cloudy
7:53 PM 41.0 °F - 39.0 °F 93% 29.17 in 10.0 mi Calm Calm - N/A   Mostly Cloudy
8:53 PM 42.1 °F 39.2 °F 39.0 °F 89% 29.17 in 10.0 mi South 4.6 mph - N/A   Overcast
9:53 PM 44.1 °F 40.1 °F 37.0 °F 76% 29.18 in 10.0 mi Variable 6.9 mph 21.9 mph 0.01 in Rain Light Rain
10:53 PM 46.0 °F 41.4 °F 36.0 °F 68% 29.19 in 10.0 mi SSW 9.2 mph 26.5 mph N/A   Overcast
11:24 PM 46.4 °F 41.9 °F 35.6 °F 66% 29.20 in 10.0 mi SSW 9.2 mph 24.2 mph N/A   Overcast
11:53 PM 45.0 °F 41.2 °F 36.0 °F 71% 29.22 in 10.0 mi Variable 6.9 mph 24.2 mph N/A   Mostly Cloudy